Location: Aragnouet
(42.7874°N, 0.2165°E)
Time: 10:08:58
(UTC+00:00)

Cosmos 2151 - Pass Details

Date: 09 April 2020
Orbit: 582 x 600 km, 82.5° (Epoch: 05 June)

Event Time Altitude Azimuth Distance (km) Brightness Sun altitude
Rises 21:02:48 0° 356° (N) 2,815 7.1 -25.1°
Reaches altitude 10° 21:05:03 10° 2° (N) 1,912 6.0 -25.4°
Enters shadow 21:07:39 34° 22° (NNE) 983 4.2 -25.8°
